User: anonymous   Login
Location: Colebrook
(42.0017°N, 73.0973°W)
Time: 14:12:24
(UTC-04:00)
Language:

Envisat - Orbit

View from above orbital plane
View from above orbital plane
View from above satellite
View from above satellite

Ground track
Ground track

The orbit data is extracted from the following two-line orbital elements,

1 27386U 02009A   21295.98712865  .00000043  00000-0  27636-4 0  9997
2 27386  98.1603 283.5969 0001237  90.9481 331.7970 14.38048851 29408
Epoch (UTC): 22 October 2021 23:41:27
Eccentricity: 0.0001237
inclination: 98.1603°
perigee height: 764 km
apogee height: 766 km
right ascension of ascending node: 283.5969°
argument of perigee: 90.9481°
revolutions per day: 14.38048851
mean anomaly at epoch: 331.7970°
orbit number at epoch: 2940

The dashed part of the orbit path shows where the satellite is in the earth's shadow,  

DLR